Погода в Ванаваре

Погода в Ванаваре : погода сейчас, прогноз погоды и архив. Всё, что Вы хотите узнать о погоде в Ванаваре!

Хотите узнать прогноз погоды в Ванаваре? Тогда Вам сюда: Погода в Ванаваре

Поиск расширенной информации на нашем сайте:

Другие новости

Новости СМИ2

Главная страница сайта

Новости сайта

02.10.2013

Напоминаем, что на нашем новом сайте вы можете получить высокодетализированные прогнозы погоды по пунктам России, СНГ и мира (включающие важные для авиации метеовеличины, такие как направление и скорость ветра, видимость, явления погоды, количество и форма облачности, нижняя и верхняя граница облачности), а также ознакомиться с разнообразными материалами по авиационной метеорологии и подборкой полезных ссылок на эту тему.

Сайт Метеоцентр.Азия посвящён разработке технологий оптимизации авиаметеорологического обслуживания, включая проектирование и перспективное создание нескольких автоматизированных авиаметеорологических систем:
- система выпуска высокодетальных прогностических карт явлений погоды для нижнего воздушного пространства по России и ближнему зарубежью;
- система верификации прогнозов TAF (выпускаемых синоптиками официальных АМСГ РФ и ближнего зарубежья) и AUTOTAF (выпускаемых сайтом Метеоцентр.Азия) - выявление ошибок, онлайн-сопоставление с фактической погодой METAR, автоматическое внесение коррективов в прогнозы при резком отклонении фактической погоды от прогноза, подсчёт оправдываемости прогнозов по элементам и в целом;
- система обработки, анализа и отображения авиаметеорологической информации для применения провайдерами метеорологической информации.

Рекомендуем: Заправка картриджей Xerox Фрунзенская.

Погода в Ванаваре - сегодня

Время (UTC), дата Ветер
(°,м/с) 
Видим.   Явления Облачность Т
(°С)
Тd
(°С)
f(%) Тe
(°С)
Pmin
(гПа)
dP
(гПа)
Po
(мм)
O2
(г/м3)
Тmin Tmax R s Состояние
почвы
15 24.03.17 200 (Ю) 20000 м    4/0 верхняя 
[Ci fib]
-9 -11.5 82 -9  1028.3  0.3  746  312           
18 24.03.17 210 (ЮЗ) 20000 м    8/0 верхняя 
[Ci fib]
-11.8 -13.6 86 -14  1028.4  -0.3  746  315           
21 24.03.17 тихо ()   20000 м    8/0 верхняя 
[Ci fib]
-15.4 -16.3 93 -15  1028.9  746  320           
00 25.03.17 тихо ()   20000 м    4/0 верхняя 
[Ci fib]
-15.2 -16.5 90 -15  1029.2  0.3  746  320  -17.3      50  равномерный
сухой снег
100% 
03 25.03.17 тихо ()   20000 м    1/0 верхняя 
[Ci fib]
+1.7 -10.2 41 +2  1026.6  -0.4  746  299           
06 25.03.17 260 (З) 20000 м    8/0 верхняя 
[Ci fib]
+8.3 -7.5 32 +9  1024.1  -1.7  744  292           
09 25.03.17 250 (З) 20000 м    3/0 верхняя 
[Ci fib]
+9.4 -8.2 28 +10  1021.6  -2.2  743  290           
12 25.03.17 тихо ()   20000 м    10/0 средняя, верхняя 
[Ac trans|Ci fib]
+0.7 -8.1 52 +1  1021.1  -1.5  741  299    +9.4       
15 25.03.17 тихо ()   20000 м    10/0 верхняя 
[Cs]
-7.2 -8.2 93 -7  1020.8  -1.3  740  307           
18 25.03.17 тихо ()   20000 м    3/0 верхняя 
[Ci fib]
-11 -12.2 91 -11  1019.7  -1.5  739  312           
21 25.03.17 020 (С) 20000 м    ясно 
-13.7 -14.2 96 -14  1018.1  -1.9  738  314           
00 26.03.17 тихо ()   20000 м    10/0 верхняя 
[Ci fib]
-14.1 -15 93 -14  1016.2  -1.9  737  314  -16      47  равномерный
сухой снег
100% 
03 26.03.17 200 (Ю) 20000 м    10/0 верхняя 
[Cs]
+4.7 -10.1 33 +4  1011.5  -2.3  735  292           
06 26.03.17 220 (ЮЗ) 20000 м    10/8 1000 м верхняя 
[Sc|Cs]
+7.1 -10.7 27 +6  1008.9  -2.3  733  289           
09 26.03.17 250 (З) 3{11}  20000 м  слаб. ливневой снег  10/0 кучево-дожд., верхняя 
[Cb cap|Cs]
+2.5 -0.4 81 +1  1010.7  1.3  734  293           
12 26.03.17 270 (З) 20000 м  {ливн. осадки}  10/4 300 м кучево-дожд., верхняя 
[Cb cap|Cs]
+1.1 -0.7 88 +2  1012.4  1.5  735  295    +8.2  0.4     
15 26.03.17 280 (З) 20000 м    10/0 верхняя 
[Cs]
-1.2 -5.8 71 -2  1015.1  2.3  737  299           
18 26.03.17 240 (ЮЗ) 20000 м    10/0 верхняя 
[Cs]
-2.5 -6.6 73 -4  1016.5  1.2  738  301           
21 26.03.17 230 (ЮЗ) 20000 м    10/0 средняя, верхняя 
[Ac trans|Cs]
-2.8 -6.7 74 -4  1016.9  0.3  738  301           
00 27.03.17 220 (ЮЗ) 20000 м    ясно 
-3.9 -6.7 81 -3  1018.1  1.1  739  303  -4.7      48  равномерный
сухой снег
100% 
03 27.03.17 270 (З) 20000 м    10/1 1000 м верхняя 
[Cu hum|Cs]
+1.1 -4.7 65 +2  1018.7  1.1  740  297           
06 27.03.17 270 (З) 20000 м    10/8 600 м кучево-дожд., верхняя 
[Cb cap|Ci fib]
+2.5 -7.6 47 +3  1018.4  -0.1  740  296           
09 27.03.17 270 (З) 20000 м  {ливн. осадки}  8/5 600 м кучево-дожд., верхняя 
[Cb cap|Ci fib]
+3.2 -6.8 48 +4  1018.7  0.4  740  295           
12 27.03.17 130 (ЮВ) 20000 м  {ливн. осадки}  4/1 1000 м верхняя 
[Sc diur, vesp|Ci fib]
-1.9 -8.7 60 -1  1020.4  0.9  741  301    +3.9  0.0     
15 27.03.17 тихо ()   20000 м    ясно 
-8.9 -9.9 92 -9  1022.8  1.5  742  310           
Время (UTC), дата Ветер
(°,м/с) 
Видим.   Явления Облачность Т
(°С)
Тd
(°С)
f(%) Тe
(°С)
Pmin
(гПа)
dP
(гПа)
Po
(мм)
O2
(г/м3)
Тmin Tmax R s Состояние
почвы

Для получения пояснительной информации подведите курсор к названию столбца.

ПОГОДА в Ванаваре - архив

Всё, что Вы хотите узнать о погоде в Ванаваре - удобно и подробно!

Выберите нужную дату (начиная с 1 января 2015* года) и нажмите кнопку "Найти".
Будут отображены архивные сводки погоды по пункту Ванавара, начиная с указанной даты.


Отображать данные в формате CSV (для использования в таблицах Excel)


Внимание! Наш архив погоды предназначен исключительно для личного некоммерческого использования в познавательных целях. Если Вам необходимы официальные справки о состоянии погоды (для производственных, юридических, коммерческих и т.п. целей), обращайтесь в органы Росгидромета.

*Примечание: данная дата относится к архиву по метеостанциям СССР (Россия, СНГ, Балтия).
Архив по метеостанциям Зарубежной Европы и Азии (кроме Китая) хранится 10 дней, по другим регионам земного шара (Китай, Африка, Америка, Австралия, Океания) - 1 день.

Ванавара - район местоположения метеостанции


Название, широта, долгота, высота метеостанции:
Ванавара 60.3°ш. 102.3°д. 260 м над ур. моря [Российская Федерация]

Дополнительная информация

В oтличие oт бoльшинства пoгoдных сайтoв мы публикуем пoдрoбную метеoинфoрмацию в детальнoм прoфессиoнальнoм фoрмате.

Характеристики температуры и влажнoсти вoздуха измеряются на высoте 2 м в тени вдали oт зданий и деревьев.
Скoрoсть ветра измеряется на высoте 10 м (на урoвне рoста челoвека скoрoсть ветра ниже в 1.5-2 раза). Если метеoстанция нахoдится в гoрoде или в лесу, тo скoрoсть ветра занижена на 2-4 м/с пo сравнению с oткрытым местoм. Скoрoсть ветра над акватoриями крупных рек и oзёр, а также на вершинах хoлмoв на 2-5 м/с выше, чем в oбычных услoвиях.
Атмoсфернoе давление в разных тoчках местнoсти мoжет значительнo oтличаться oт давления на метеoстанции, в зависимoсти oт услoвий рельефа (при пoдъёме на 10 м давление пoнижается примернo на 1 мм рт.ст.).